Weather History for Los Alamitos, CA

Change the Weather History Date:

Tuesday, July 9, 2013

  Actual Average Record
Temperature  
Mean Temperature 70 °F -  
Max Temperature 77 °F 77 °F 89 °F (2006)
Min Temperature 62 °F 65 °F 58 °F (2012)
Cooling Degree Days 4    
Growing Degree Days 20 (Base 50)    
Moisture  
Dew Point 62 °F    
Average Humidity 76    
Maximum Humidity 100    
Minimum Humidity 46    
Precipitation  
Precipitation 0.00 in - - ()
Sea Level Pressure  
Sea Level Pressure 29.96 in    
Wind  
Wind Speed 4 mph (South)    
Max Wind Speed 14 mph    
Max Gust Speed -    
Visibility 10 miles    
Events      
Averages and records for this station are not official NWS values.
T = Trace of Precipitation, MM = Missing Value Source: NWS Daily Summary

Daily Weather History Graph

Daily Weather History Graph

Search for Another Location

Airport:

Trip Planner

Search our weather history database for the weather conditions in past years. The results will help you decide how hot, cold, wet, or windy it might be!

Date:

Astronomy

Jul. 09, 2013 Rise Set
Actual Time 5:49 AM PDT 8:05 PM PDT
Civil Twilight 5:20 AM PDT 8:34 PM PDT
Nautical Twilight 4:45 AM PDT 9:09 PM PDT
Astronomical Twilight 4:07 AM PDT 9:47 PM PDT
Moon 7:11 AM PDT (7/9) 8:53 PM PDT (7/9)
Length of Visible Light 15h 13m
Length of Day
14h 16m
New Moon, 2% of the Moon is Illuminated
Jul 9
New Moon
Jul 15
First Quarter
Jul 22
Full
Jul 29
Last Quarter
Aug 6
New

Hourly Weather History & Observations

Time (PDT) Temp. Dew Point Humidity Pressure Visibility Wind Dir Wind Speed Gust Speed Precip Events Conditions
12:58 AM 65.5 °F 64.9 °F 98% 29.94 in 10.0 mi Calm Calm - N/A   Clear
1:58 AM 64.8 °F 63.3 °F 95% 29.92 in 10.0 mi Calm Calm - N/A   Clear
2:58 AM 64.2 °F 63.7 °F 98% 29.91 in 10.0 mi Calm Calm - N/A   Clear
3:58 AM 63.5 °F 63.1 °F 99% 29.91 in 10.0 mi SSW 2.3 mph - N/A   Clear
4:58 AM 62.8 °F 62.8 °F 100% 29.91 in 10.0 mi Calm Calm - N/A   Clear
5:58 AM 62.8 °F 62.8 °F 100% 29.93 in 10.0 mi South 2.3 mph - N/A   Clear
6:58 AM 65.5 °F 65.5 °F 100% 29.95 in 7.0 mi SSE 2.3 mph - N/A   Partly Cloudy
7:58 AM 69.1 °F 63.3 °F 82% 29.97 in 10.0 mi East 2.3 mph - N/A   Partly Cloudy
8:58 AM 73.8 °F 58.5 °F 59% 29.98 in 10.0 mi Variable 3.5 mph - N/A   Scattered Clouds
9:58 AM 75.6 °F 59.0 °F 56% 29.99 in 10.0 mi South 8.1 mph - N/A   Mostly Cloudy
10:58 AM 76.3 °F 57.9 °F 53% 30.00 in 10.0 mi SSW 9.2 mph - N/A   Scattered Clouds
11:58 AM 75.0 °F 59.5 °F 58% 30.01 in 10.0 mi SSW 13.8 mph - N/A   Mostly Cloudy
12:58 PM 75.9 °F 59.0 °F 56% 30.02 in 10.0 mi South 12.7 mph - N/A   Partly Cloudy
1:58 PM 77.4 °F 59.4 °F 54% 30.01 in 10.0 mi South 11.5 mph - N/A   Partly Cloudy
2:00 PM 77.0 °F 59.0 °F 54% 30.00 in 10.0 mi SSE 12.7 mph - N/A   Light Drizzle
2:01 PM 77.0 °F 59.0 °F 54% 30.00 in 10.0 mi SSE 12.7 mph - N/A   Partly Cloudy
2:58 PM 77.4 °F 55.2 °F 46% 30.01 in 10.0 mi SSW 11.5 mph - N/A   Partly Cloudy
3:58 PM 76.3 °F 54.9 °F 47% 29.98 in 10.0 mi SSW 10.4 mph - N/A   Partly Cloudy
4:58 PM 75.6 °F 56.7 °F 52% 29.97 in 10.0 mi SW 9.2 mph - N/A   Partly Cloudy
5:58 PM 74.7 °F 58.3 °F 57% 29.94 in 10.0 mi South 8.1 mph - N/A   Partly Cloudy
6:58 PM 71.8 °F 61.9 °F 71% 29.93 in 10.0 mi SSW 9.2 mph - N/A   Partly Cloudy
7:58 PM 68.0 °F 65.7 °F 92% 29.93 in 10.0 mi SSW 9.2 mph - N/A   Partly Cloudy
8:58 PM 67.3 °F 66.4 °F 97% 29.94 in 10.0 mi South 4.6 mph - N/A   Clear
9:58 PM 66.9 °F 66.6 °F 99% 29.96 in 10.0 mi South 3.5 mph - N/A   Clear
10:58 PM 67.1 °F 66.6 °F 98% 29.97 in 10.0 mi SE 4.6 mph - N/A   Clear
11:58 PM 66.4 °F 66.4 °F 100% 29.98 in 10.0 mi SSE 2.3 mph - N/A   Clear